Time,TemperatureF,DewpointF,PressureIn,WindDirection,WindDirectionDegrees,WindSpeedMPH,WindSpeedGustMPH,Humidity,HourlyPrecipIn,Conditions,Clouds,dailyrainin,SolarRadiationWatts/m^2,SoftwareType,DateUTC
2013-04-14 00:01:00,47.0,36.2,29.97,SE,135,3.0,3.0,66,-99.99,,,0.00,0.00,VWS V14.01,2013-04-14 04:01:00,
2013-04-14 00:02:00,47.0,36.6,29.97,SSE,158,1.0,3.0,67,-99.99,,,0.00,0.00,VWS V14.01,2013-04-14 04:02:00,
2013-04-14 00:03:00,47.0,35.5,29.96,SSW,202,6.0,10.0,64,-99.99,,,0.00,0.00,VWS V14.01,2013-04-14 04:03:00,
2013-04-14 00:04:00,46.0,35.7,29.97,SSE,158,1.0,3.0,67,-99.99,,,0.00,0.00,VWS V14.01,2013-04-14 04:04:00,
2013-04-14 00:05:00,46.0,36.0,29.97,ESE,112,1.0,3.0,68,-99.99,,,0.00,0.00,VWS V14.01,2013-04-14 04:05:00,
2013-04-14 00:06:00,46.0,36.0,29.97,ESE,112,1.0,1.0,68,-99.99,,,0.00,0.00,VWS V14.01,2013-04-14 04:06:00,
2013-04-14 00:07:00,46.0,35.7,29.97,ESE,112,1.0,2.0,67,-99.99,,,0.00,0.00,VWS V14.01,2013-04-14 04:07:00,
2013-04-14 00:08:00,48.0,36.0,29.95,SSW,202,4.0,5.0,63,-99.99,,,0.00,0.00,VWS V14.01,2013-04-14 04:08:00,
2013-04-14 00:09:00,46.0,36.0,29.97,South,180,1.0,2.0,68,-99.99,,,0.00,0.00,VWS V14.01,2013-04-14 04:09:00,
2013-04-14 00:10:00,46.0,36.0,29.97,SSW,202,4.0,4.0,68,-99.99,,,0.00,0.00,VWS V14.01,2013-04-14 04:10:00,
2013-04-14 00:11:00,46.0,36.0,29.97,South,180,1.0,4.0,68,-99.99,,,0.00,0.00,VWS V14.01,2013-04-14 04:11:00,
2013-04-14 00:12:00,46.0,36.0,29.97,SW,225,1.0,3.0,68,-99.99,,,0.00,0.00,VWS V14.01,2013-04-14 04:12:00,
2013-04-14 00:13:00,48.0,35.6,29.95,South,180,1.0,3.0,62,-99.99,,,0.00,0.00,VWS V14.01,2013-04-14 04:13:00,
2013-04-14 00:14:00,46.0,36.0,29.97,SSW,202,2.0,4.0,68,-99.99,,,0.00,0.00,VWS V14.01,2013-04-14 04:14:00,
2013-04-14 00:15:00,46.0,36.0,29.97,SW,225,3.0,3.0,68,-99.99,,,0.00,0.00,VWS V14.01,2013-04-14 04:15:00,
2013-04-14 00:16:00,46.0,36.0,29.97,SSW,202,3.0,5.0,68,-99.99,,,0.00,0.00,VWS V14.01,2013-04-14 04:16:00,
2013-04-14 00:17:00,46.0,36.0,29.97,SW,225,4.0,5.0,68,-99.99,,,0.00,0.00,VWS V14.01,2013-04-14 04:17:00,
2013-04-14 00:18:00,48.0,36.0,29.95,South,180,2.0,3.0,63,-99.99,,,0.00,0.00,VWS V14.01,2013-04-14 04:18:00,
2013-04-14 00:19:00,46.0,35.7,29.97,SW,225,1.0,5.0,67,-99.99,,,0.00,0.00,VWS V14.01,2013-04-14 04:19:00,
2013-04-14 00:20:00,46.0,35.7,29.97,SSW,202,3.0,5.0,67,-99.99,,,0.00,0.00,VWS V14.01,2013-04-14 04:20:00,
2013-04-14 00:21:00,46.0,35.7,29.97,SW,225,2.0,4.0,67,-99.99,,,0.00,0.00,VWS V14.01,2013-04-14 04:21:00,
2013-04-14 00:22:00,47.0,36.6,29.97,SSE,158,3.0,4.0,67,-99.99,,,0.00,0.00,VWS V14.01,2013-04-14 04:22:00,
2013-04-14 00:23:00,47.0,35.9,29.96,South,180,2.0,4.0,65,-99.99,,,0.00,0.00,VWS V14.01,2013-04-14 04:23:00,
2013-04-14 00:24:00,46.0,35.7,29.97,South,180,3.0,4.0,67,-99.99,,,0.00,0.00,VWS V14.01,2013-04-14 04:24:00,
2013-04-14 00:25:00,46.0,35.7,29.97,South,180,2.0,3.0,67,-99.99,,,0.00,0.00,VWS V14.01,2013-04-14 04:25:00,
2013-04-14 00:26:00,46.0,36.0,29.97,SSE,158,3.0,3.0,68,-99.99,,,0.00,0.00,VWS V14.01,2013-04-14 04:26:00,
2013-04-14 00:27:00,46.0,36.0,29.97,SSE,158,4.0,4.0,68,-99.99,,,0.00,0.00,VWS V14.01,2013-04-14 04:27:00,
2013-04-14 00:28:00,46.0,36.0,29.97,SSE,158,2.0,4.0,68,-99.99,,,0.00,0.00,VWS V14.01,2013-04-14 04:28:00,
2013-04-14 00:29:00,47.0,36.2,29.96,SSW,202,4.0,5.0,66,-99.99,,,0.00,0.00,VWS V14.01,2013-04-14 04:29:00,
2013-04-14 00:30:00,46.0,36.0,29.97,SE,135,2.0,2.0,68,-99.99,,,0.00,0.00,VWS V14.01,2013-04-14 04:30:00,
2013-04-14 00:31:00,46.0,36.0,29.97,SE,135,1.0,2.0,68,-99.99,,,0.00,0.00,VWS V14.01,2013-04-14 04:31:00,
2013-04-14 00:32:00,46.0,36.0,29.97,SE,135,3.0,4.0,68,-99.99,,,0.00,0.00,VWS V14.01,2013-04-14 04:32:00,
2013-04-14 00:33:00,46.0,36.0,29.97,SE,135,3.0,4.0,68,-99.99,,,0.00,0.00,VWS V14.01,2013-04-14 04:33:00,
2013-04-14 00:34:00,47.0,36.6,29.96,South,180,2.0,3.0,67,-99.99,,,0.00,0.00,VWS V14.01,2013-04-14 04:34:00,
2013-04-14 00:35:00,46.0,36.4,29.97,ESE,112,1.0,3.0,69,-99.99,,,0.00,0.00,VWS V14.01,2013-04-14 04:35:00,
2013-04-14 00:36:00,46.0,36.8,29.97,SSE,158,2.0,3.0,70,-99.99,,,0.00,0.00,VWS V14.01,2013-04-14 04:36:00,
2013-04-14 00:37:00,46.0,36.8,29.97,SE,135,2.0,2.0,70,-99.99,,,0.00,0.00,VWS V14.01,2013-04-14 04:37:00,
2013-04-14 00:38:00,46.0,36.8,29.97,SE,135,2.0,3.0,70,-99.99,,,0.00,0.00,VWS V14.01,2013-04-14 04:38:00,
2013-04-14 00:39:00,47.0,37.0,29.96,South,180,2.0,4.0,68,-99.99,,,0.00,0.00,VWS V14.01,2013-04-14 04:39:00,
2013-04-14 00:40:00,46.0,37.1,29.97,SW,225,3.0,3.0,71,-99.99,,,0.00,0.00,VWS V14.01,2013-04-14 04:40:00,
2013-04-14 00:41:00,46.0,37.1,29.97,SW,225,4.0,4.0,71,-99.99,,,0.00,0.00,VWS V14.01,2013-04-14 04:41:00,
2013-04-14 00:42:00,46.0,37.1,29.97,WSW,248,4.0,4.0,71,-99.99,,,0.00,0.00,VWS V14.01,2013-04-14 04:42:00,
2013-04-14 00:43:00,46.0,36.8,29.97,West,270,5.0,6.0,70,-99.99,,,0.00,0.00,VWS V14.01,2013-04-14 04:43:00,
2013-04-14 00:44:00,47.0,37.0,29.96,SW,225,3.0,5.0,68,-99.99,,,0.00,0.00,VWS V14.01,2013-04-14 04:44:00,
2013-04-14 00:45:00,46.0,36.8,29.97,WSW,248,4.0,5.0,70,-99.99,,,0.00,0.00,VWS V14.01,2013-04-14 04:45:00,
2013-04-14 00:46:00,46.0,36.8,29.97,SW,225,3.0,4.0,70,-99.99,,,0.00,0.00,VWS V14.01,2013-04-14 04:46:00,
2013-04-14 00:47:00,46.0,36.8,29.97,SW,225,3.0,3.0,70,-99.99,,,0.00,0.00,VWS V14.01,2013-04-14 04:47:00,
2013-04-14 00:48:00,46.0,36.8,29.96,SW,225,2.0,3.0,70,-99.99,,,0.00,0.00,VWS V14.01,2013-04-14 04:48:00,
2013-04-14 00:49:00,47.0,35.9,29.96,SW,225,2.0,4.0,65,-99.99,,,0.00,0.00,VWS V14.01,2013-04-14 04:49:00,
2013-04-14 00:50:00,46.0,36.8,29.96,WSW,248,4.0,5.0,70,-99.99,,,0.00,0.00,VWS V14.01,2013-04-14 04:50:00,
2013-04-14 00:51:00,46.0,36.4,29.96,WSW,248,5.0,5.0,69,-99.99,,,0.00,0.00,VWS V14.01,2013-04-14 04:51:00,
2013-04-14 00:52:00,46.0,36.4,29.97,SW,225,4.0,6.0,69,-99.99,,,0.00,0.00,VWS V14.01,2013-04-14 04:52:00,
2013-04-14 00:53:00,46.0,36.4,29.96,WSW,248,3.0,4.0,69,-99.99,,,0.00,0.00,VWS V14.01,2013-04-14 04:53:00,
2013-04-14 00:54:00,48.0,35.6,29.96,SSW,202,4.0,4.0,62,-99.99,,,0.00,0.00,VWS V14.01,2013-04-14 04:54:00,
2013-04-14 00:55:00,46.0,36.4,29.96,SW,225,3.0,6.0,69,-99.99,,,0.00,0.00,VWS V14.01,2013-04-14 04:55:00,
2013-04-14 00:56:00,46.0,36.0,29.96,SW,225,5.0,7.0,68,-99.99,,,0.00,0.00,VWS V14.01,2013-04-14 04:56:00,
2013-04-14 00:57:00,46.0,36.0,29.96,SW,225,4.0,7.0,68,-99.99,,,0.00,0.00,VWS V14.01,2013-04-14 04:57:00,
2013-04-14 00:58:00,46.0,36.0,29.96,SW,225,5.0,7.0,68,-99.99,,,0.00,0.00,VWS V14.01,2013-04-14 04:58:00,
2013-04-14 00:59:00,48.0,36.0,29.96,South,180,2.0,2.0,63,-99.99,,,0.00,0.00,VWS V14.01,2013-04-14 04:59:00,
2013-04-14 01:00:00,46.0,36.0,29.97,SW,225,7.0,8.0,68,-99.99,,,0.00,0.00,VWS V14.01,2013-04-14 05:00:00,
2013-04-14 01:01:00,46.0,35.7,29.97,WSW,248,7.0,10.0,67,-99.99,,,0.00,0.00,VWS V14.01,2013-04-14 05:01:00,
2013-04-14 01:03:00,46.0,35.3,29.97,SW,225,9.0,10.0,66,-99.99,,,0.00,0.00,VWS V14.01,2013-04-14 05:03:00,
2013-04-14 01:04:00,47.0,36.2,29.97,SE,135,2.0,3.0,66,-99.99,,,0.00,0.00,VWS V14.01,2013-04-14 05:04:00,
2013-04-14 01:05:00,46.0,34.5,29.97,SW,225,6.0,10.0,64,-99.99,,,0.00,0.00,VWS V14.01,2013-04-14 05:05:00,
2013-04-14 01:06:00,47.0,35.1,29.97,South,180,7.0,11.0,63,-99.99,,,0.00,0.00,VWS V14.01,2013-04-14 05:06:00,
2013-04-14 01:07:00,47.0,35.1,29.97,SW,225,9.0,11.0,63,-99.99,,,0.00,0.00,VWS V14.01,2013-04-14 05:07:00,
2013-04-14 01:08:00,47.0,34.7,29.96,SW,225,9.0,9.0,62,-99.99,,,0.00,0.00,VWS V14.01,2013-04-14 05:08:00,
2013-04-14 01:09:00,46.0,36.0,29.97,ESE,112,1.0,3.0,68,-99.99,,,0.00,0.00,VWS V14.01,2013-04-14 05:09:00,
2013-04-14 01:10:00,47.0,34.7,29.96,SW,225,7.0,8.0,62,-99.99,,,0.00,0.00,VWS V14.01,2013-04-14 05:10:00,
2013-04-14 01:11:00,47.0,34.3,29.96,WSW,248,8.0,11.0,61,-99.99,,,0.00,0.00,VWS V14.01,2013-04-14 05:11:00,
2013-04-14 01:12:00,47.0,34.3,29.96,SW,225,9.0,9.0,61,-99.99,,,0.00,0.00,VWS V14.01,2013-04-14 05:12:00,
2013-04-14 01:13:00,47.0,33.8,29.96,SW,225,7.0,12.0,60,-99.99,,,0.00,0.00,VWS V14.01,2013-04-14 05:13:00,
2013-04-14 01:14:00,46.0,36.0,29.97,SSW,202,4.0,4.0,68,-99.99,,,0.00,0.00,VWS V14.01,2013-04-14 05:14:00,
2013-04-14 01:15:00,48.0,34.8,29.96,SW,225,9.0,10.0,60,-99.99,,,0.00,0.00,VWS V14.01,2013-04-14 05:15:00,
2013-04-14 01:16:00,48.0,34.8,29.96,SW,225,8.0,11.0,60,-99.99,,,0.00,0.00,VWS V14.01,2013-04-14 05:16:00,
2013-04-14 01:17:00,48.0,34.8,29.96,SW,225,7.0,11.0,60,-99.99,,,0.00,0.00,VWS V14.01,2013-04-14 05:17:00,
2013-04-14 01:18:00,48.0,34.4,29.96,SSW,202,5.0,10.0,59,-99.99,,,0.00,0.00,VWS V14.01,2013-04-14 05:18:00,
2013-04-14 01:19:00,46.0,36.0,29.97,SW,225,3.0,3.0,68,-99.99,,,0.00,0.00,VWS V14.01,2013-04-14 05:19:00,
2013-04-14 01:20:00,48.0,34.4,29.96,SSW,202,8.0,12.0,59,-99.99,,,0.00,0.00,VWS V14.01,2013-04-14 05:20:00,
2013-04-14 01:21:00,48.0,34.4,29.96,SSW,202,7.0,11.0,59,-99.99,,,0.00,0.00,VWS V14.01,2013-04-14 05:21:00,
2013-04-14 01:22:00,48.0,33.9,29.97,SSW,202,7.0,13.0,58,-99.99,,,0.00,0.00,VWS V14.01,2013-04-14 05:22:00,
2013-04-14 01:23:00,48.0,33.9,29.97,SSW,202,7.0,9.0,58,-99.99,,,0.00,0.00,VWS V14.01,2013-04-14 05:23:00,
2013-04-14 01:24:00,46.0,35.7,29.97,SW,225,4.0,5.0,67,-99.99,,,0.00,0.00,VWS V14.01,2013-04-14 05:24:00,
2013-04-14 01:25:00,48.0,33.9,29.97,SW,225,5.0,10.0,58,-99.99,,,0.00,0.00,VWS V14.01,2013-04-14 05:25:00,
2013-04-14 01:26:00,48.0,33.9,29.97,SW,225,4.0,9.0,58,-99.99,,,0.00,0.00,VWS V14.01,2013-04-14 05:26:00,
2013-04-14 01:27:00,48.0,34.4,29.97,SSE,158,2.0,5.0,59,-99.99,,,0.00,0.00,VWS V14.01,2013-04-14 05:27:00,
2013-04-14 01:28:00,48.0,34.8,29.97,SSE,158,2.0,5.0,60,-99.99,,,0.00,0.00,VWS V14.01,2013-04-14 05:28:00,
2013-04-14 01:29:00,46.0,35.7,29.97,SSE,158,2.0,3.0,67,-99.99,,,0.00,0.00,VWS V14.01,2013-04-14 05:29:00,
2013-04-14 01:30:00,48.0,35.6,29.96,SSW,202,1.0,2.0,62,-99.99,,,0.00,0.00,VWS V14.01,2013-04-14 05:30:00,
2013-04-14 01:31:00,48.0,35.6,29.96,South,180,2.0,4.0,62,-99.99,,,0.00,0.00,VWS V14.01,2013-04-14 05:31:00,
2013-04-14 01:32:00,48.0,35.6,29.96,SW,225,4.0,6.0,62,-99.99,,,0.00,0.00,VWS V14.01,2013-04-14 05:32:00,
2013-04-14 01:33:00,47.0,34.7,29.96,SW,225,7.0,9.0,62,-99.99,,,0.00,0.00,VWS V14.01,2013-04-14 05:33:00,
2013-04-14 01:34:00,46.0,36.0,29.97,SE,135,1.0,2.0,68,-99.99,,,0.00,0.00,VWS V14.01,2013-04-14 05:34:00,
2013-04-14 01:35:00,47.0,34.3,29.96,SW,225,6.0,10.0,61,-99.99,,,0.00,0.00,VWS V14.01,2013-04-14 05:35:00,
2013-04-14 01:36:00,47.0,34.3,29.96,SW,225,6.0,10.0,61,-99.99,,,0.00,0.00,VWS V14.01,2013-04-14 05:36:00,
2013-04-14 01:37:00,47.0,34.7,29.96,SSW,202,4.0,7.0,62,-99.99,,,0.00,0.00,VWS V14.01,2013-04-14 05:37:00,
2013-04-14 01:38:00,47.0,34.7,29.96,SW,225,4.0,7.0,62,-99.99,,,0.00,0.00,VWS V14.01,2013-04-14 05:38:00,
2013-04-14 01:39:00,46.0,36.4,29.97,ESE,112,2.0,3.0,69,-99.99,,,0.00,0.00,VWS V14.01,2013-04-14 05:39:00,
2013-04-14 01:40:00,47.0,34.7,29.97,SSW,202,7.0,9.0,62,-99.99,,,0.00,0.00,VWS V14.01,2013-04-14 05:40:00,
2013-04-14 01:41:00,47.0,35.1,29.97,SW,225,7.0,10.0,63,-99.99,,,0.00,0.00,VWS V14.01,2013-04-14 05:41:00,
2013-04-14 01:42:00,47.0,35.1,29.97,SSE,158,3.0,8.0,63,-99.99,,,0.00,0.00,VWS V14.01,2013-04-14 05:42:00,
2013-04-14 01:43:00,47.0,35.5,29.96,South,180,2.0,4.0,64,-99.99,,,0.00,0.00,VWS V14.01,2013-04-14 05:43:00,
2013-04-14 01:44:00,46.0,36.8,29.97,South,180,2.0,3.0,70,-99.99,,,0.00,0.00,VWS V14.01,2013-04-14 05:44:00,
2013-04-14 01:45:00,47.0,35.9,29.96,SSW,202,7.0,7.0,65,-99.99,,,0.00,0.00,VWS V14.01,2013-04-14 05:45:00,
2013-04-14 01:46:00,47.0,35.9,29.96,SW,225,2.0,7.0,65,-99.99,,,0.00,0.00,VWS V14.01,2013-04-14 05:46:00,
2013-04-14 01:47:00,47.0,35.9,29.96,SSW,202,4.0,5.0,65,-99.99,,,0.00,0.00,VWS V14.01,2013-04-14 05:47:00,
2013-04-14 01:48:00,47.0,36.2,29.96,SSW,202,5.0,5.0,66,-99.99,,,0.00,0.00,VWS V14.01,2013-04-14 05:48:00,
2013-04-14 01:49:00,46.0,36.8,29.97,WSW,248,5.0,5.0,70,-99.99,,,0.00,0.00,VWS V14.01,2013-04-14 05:49:00,
2013-04-14 01:50:00,47.0,35.5,29.96,SW,225,7.0,9.0,64,-99.99,,,0.00,0.00,VWS V14.01,2013-04-14 05:50:00,
2013-04-14 01:51:00,47.0,35.5,29.96,SW,225,6.0,8.0,64,-99.99,,,0.00,0.00,VWS V14.01,2013-04-14 05:51:00,
2013-04-14 01:52:00,47.0,35.5,29.96,SSE,158,3.0,7.0,64,-99.99,,,0.00,0.00,VWS V14.01,2013-04-14 05:52:00,
2013-04-14 01:53:00,47.0,35.9,29.96,SW,225,6.0,7.0,65,-99.99,,,0.00,0.00,VWS V14.01,2013-04-14 05:53:00,
2013-04-14 01:54:00,46.0,36.8,29.96,WSW,248,4.0,5.0,70,-99.99,,,0.00,0.00,VWS V14.01,2013-04-14 05:54:00,
2013-04-14 01:55:00,47.0,35.9,29.96,South,180,2.0,5.0,65,-99.99,,,0.00,0.00,VWS V14.01,2013-04-14 05:55:00,
2013-04-14 01:56:00,47.0,35.9,29.96,SE,135,3.0,4.0,65,-99.99,,,0.00,0.00,VWS V14.01,2013-04-14 05:56:00,
2013-04-14 01:57:00,47.0,35.9,29.96,SSW,202,2.0,5.0,65,-99.99,,,0.00,0.00,VWS V14.01,2013-04-14 05:57:00,
2013-04-14 01:58:00,47.0,35.5,29.96,South,180,3.0,5.0,64,-99.99,,,0.00,0.00,VWS V14.01,2013-04-14 05:58:00,
2013-04-14 01:59:00,46.0,36.4,29.96,WSW,248,4.0,6.0,69,-99.99,,,0.00,0.00,VWS V14.01,2013-04-14 05:59:00,
2013-04-14 02:00:00,46.0,35.3,29.96,SSW,202,4.0,4.0,66,-99.99,,,0.00,0.00,VWS V14.01,2013-04-14 06:00:00,
2013-04-14 02:01:00,46.0,35.3,29.96,South,180,4.0,5.0,66,-99.99,,,0.00,0.00,VWS V14.01,2013-04-14 06:01:00,
2013-04-14 02:02:00,46.0,35.3,29.96,South,180,3.0,5.0,66,-99.99,,,0.00,0.00,VWS V14.01,2013-04-14 06:02:00,
2013-04-14 02:03:00,46.0,34.9,29.96,SW,225,4.0,4.0,65,-99.99,,,0.00,0.00,VWS V14.01,2013-04-14 06:03:00,
2013-04-14 02:04:00,46.0,36.0,29.97,WSW,248,6.0,8.0,68,-99.99,,,0.00,0.00,VWS V14.01,2013-04-14 06:04:00,
2013-04-14 02:05:00,46.0,34.9,29.96,SE,135,2.0,4.0,65,-99.99,,,0.00,0.00,VWS V14.01,2013-04-14 06:05:00,
2013-04-14 02:06:00,46.0,35.3,29.96,SSE,158,1.0,4.0,66,-99.99,,,0.00,0.00,VWS V14.01,2013-04-14 06:06:00,
2013-04-14 02:07:00,46.0,35.3,29.97,SSE,158,4.0,4.0,66,-99.99,,,0.00,0.00,VWS V14.01,2013-04-14 06:07:00,
2013-04-14 02:08:00,46.0,35.3,29.97,South,180,2.0,5.0,66,-99.99,,,0.00,0.00,VWS V14.01,2013-04-14 06:08:00,
2013-04-14 02:09:00,46.0,34.5,29.96,SW,225,10.0,10.0,64,-99.99,,,0.00,0.00,VWS V14.01,2013-04-14 06:09:00,
2013-04-14 02:10:00,46.0,35.3,29.97,SSW,202,6.0,7.0,66,-99.99,,,0.00,0.00,VWS V14.01,2013-04-14 06:10:00,
2013-04-14 02:11:00,46.0,35.7,29.97,SW,225,5.0,6.0,67,-99.99,,,0.00,0.00,VWS V14.01,2013-04-14 06:11:00,
2013-04-14 02:12:00,46.0,35.7,29.97,SSW,202,7.0,7.0,67,-99.99,,,0.00,0.00,VWS V14.01,2013-04-14 06:12:00,
2013-04-14 02:13:00,46.0,34.9,29.97,West,270,2.0,11.0,65,-99.99,,,0.00,0.00,VWS V14.01,2013-04-14 06:13:00,
2013-04-14 02:14:00,47.0,34.7,29.97,SW,225,6.0,8.0,62,-99.99,,,0.00,0.00,VWS V14.01,2013-04-14 06:14:00,
2013-04-14 02:15:00,47.0,35.9,29.96,SSW,202,1.0,5.0,65,-99.99,,,0.00,0.00,VWS V14.01,2013-04-14 06:15:00,
2013-04-14 02:16:00,47.0,35.9,29.96,SW,225,5.0,7.0,65,-99.99,,,0.00,0.00,VWS V14.01,2013-04-14 06:16:00,
2013-04-14 02:17:00,47.0,35.5,29.96,SSW,202,5.0,7.0,64,-99.99,,,0.00,0.00,VWS V14.01,2013-04-14 06:17:00,
2013-04-14 02:18:00,47.0,35.5,29.96,SSW,202,2.0,5.0,64,-99.99,,,0.00,0.00,VWS V14.01,2013-04-14 06:18:00,
2013-04-14 02:19:00,48.0,34.8,29.96,SW,225,8.0,10.0,60,-99.99,,,0.00,0.00,VWS V14.01,2013-04-14 06:19:00,
2013-04-14 02:20:00,47.0,35.5,29.96,SW,225,4.0,6.0,64,-99.99,,,0.00,0.00,VWS V14.01,2013-04-14 06:20:00,
2013-04-14 02:21:00,47.0,35.5,29.97,SSW,202,4.0,6.0,64,-99.99,,,0.00,0.00,VWS V14.01,2013-04-14 06:21:00,
2013-04-14 02:22:00,47.0,35.5,29.97,SW,225,5.0,7.0,64,-99.99,,,0.00,0.00,VWS V14.01,2013-04-14 06:22:00,
2013-04-14 02:23:00,47.0,35.5,29.97,SW,225,6.0,8.0,64,-99.99,,,0.00,0.00,VWS V14.01,2013-04-14 06:23:00,
2013-04-14 02:24:00,48.0,34.4,29.96,SSW,202,10.0,12.0,59,-99.99,,,0.00,0.00,VWS V14.01,2013-04-14 06:24:00,
2013-04-14 02:25:00,47.0,35.5,29.97,ESE,112,2.0,5.0,64,-99.99,,,0.00,0.00,VWS V14.01,2013-04-14 06:25:00,
2013-04-14 02:26:00,47.0,35.5,29.97,South,180,2.0,6.0,64,-99.99,,,0.00,0.00,VWS V14.01,2013-04-14 06:26:00,
2013-04-14 02:27:00,47.0,35.5,29.96,WSW,248,4.0,10.0,64,-99.99,,,0.00,0.00,VWS V14.01,2013-04-14 06:27:00,
2013-04-14 02:28:00,47.0,35.5,29.96,ESE,112,3.0,7.0,64,-99.99,,,0.00,0.00,VWS V14.01,2013-04-14 06:28:00,
2013-04-14 02:29:00,48.0,33.9,29.97,SW,225,6.0,10.0,58,-99.99,,,0.00,0.00,VWS V14.01,2013-04-14 06:29:00,
2013-04-14 02:30:00,47.0,35.5,29.97,SSW,202,4.0,5.0,64,-99.99,,,0.00,0.00,VWS V14.01,2013-04-14 06:30:00,
2013-04-14 02:31:00,47.0,35.9,29.96,South,180,5.0,7.0,65,-99.99,,,0.00,0.00,VWS V14.01,2013-04-14 06:31:00,
2013-04-14 02:32:00,47.0,35.9,29.96,SE,135,4.0,5.0,65,-99.99,,,0.00,0.00,VWS V14.01,2013-04-14 06:32:00,
2013-04-14 02:33:00,47.0,35.9,29.96,SSW,202,2.0,5.0,65,-99.99,,,0.00,0.00,VWS V14.01,2013-04-14 06:33:00,
2013-04-14 02:34:00,48.0,35.6,29.96,SSW,202,1.0,2.0,62,-99.99,,,0.00,0.00,VWS V14.01,2013-04-14 06:34:00,
2013-04-14 02:35:00,47.0,35.9,29.96,SSW,202,3.0,4.0,65,-99.99,,,0.00,0.00,VWS V14.01,2013-04-14 06:35:00,
2013-04-14 02:36:00,47.0,35.9,29.96,SE,135,5.0,8.0,65,-99.99,,,0.00,0.00,VWS V14.01,2013-04-14 06:36:00,
2013-04-14 02:37:00,47.0,35.9,29.96,SSE,158,3.0,5.0,65,-99.99,,,0.00,0.00,VWS V14.01,2013-04-14 06:37:00,
2013-04-14 02:38:00,47.0,35.9,29.96,South,180,2.0,5.0,65,-99.99,,,0.00,0.00,VWS V14.01,2013-04-14 06:38:00,
2013-04-14 02:39:00,47.0,34.3,29.96,SW,225,6.0,10.0,61,-99.99,,,0.00,0.00,VWS V14.01,2013-04-14 06:39:00,
2013-04-14 02:40:00,47.0,36.2,29.96,SW,225,1.0,6.0,66,-99.99,,,0.00,0.00,VWS V14.01,2013-04-14 06:40:00,
2013-04-14 02:41:00,47.0,36.2,29.96,South,180,4.0,7.0,66,-99.99,,,0.00,0.00,VWS V14.01,2013-04-14 06:41:00,
2013-04-14 02:42:00,47.0,36.2,29.96,SSW,202,4.0,5.0,66,-99.99,,,0.00,0.00,VWS V14.01,2013-04-14 06:42:00,
2013-04-14 02:43:00,46.0,35.3,29.96,SW,225,4.0,7.0,66,-99.99,,,0.00,0.00,VWS V14.01,2013-04-14 06:43:00,
2013-04-14 02:44:00,47.0,34.7,29.97,SSW,202,7.0,9.0,62,-99.99,,,0.00,0.00,VWS V14.01,2013-04-14 06:44:00,
2013-04-14 02:45:00,47.0,36.2,29.96,SE,135,0.0,2.0,66,-99.99,,,0.00,0.00,VWS V14.01,2013-04-14 06:45:00,
2013-04-14 02:46:00,47.0,36.2,29.96,SW,225,2.0,4.0,66,-99.99,,,0.00,0.00,VWS V14.01,2013-04-14 06:46:00,
2013-04-14 02:47:00,47.0,36.2,29.96,SSE,158,1.0,4.0,66,-99.99,,,0.00,0.00,VWS V14.01,2013-04-14 06:47:00,
2013-04-14 02:48:00,47.0,36.2,29.96,SSE,158,3.0,5.0,66,-99.99,,,0.00,0.00,VWS V14.01,2013-04-14 06:48:00,
2013-04-14 02:49:00,47.0,35.9,29.96,SSW,202,7.0,7.0,65,-99.99,,,0.00,0.00,VWS V14.01,2013-04-14 06:49:00,
2013-04-14 02:50:00,47.0,36.2,29.96,SSW,202,2.0,4.0,66,-99.99,,,0.00,0.00,VWS V14.01,2013-04-14 06:50:00,
2013-04-14 02:51:00,47.0,36.2,29.96,ESE,112,4.0,4.0,66,-99.99,,,0.00,0.00,VWS V14.01,2013-04-14 06:51:00,
2013-04-14 02:52:00,46.0,35.3,29.96,South,180,3.0,7.0,66,-99.99,,,0.00,0.00,VWS V14.01,2013-04-14 06:52:00,
2013-04-14 02:53:00,46.0,35.3,29.96,SW,225,2.0,6.0,66,-99.99,,,0.00,0.00,VWS V14.01,2013-04-14 06:53:00,
2013-04-14 02:54:00,47.0,35.5,29.96,SW,225,7.0,9.0,64,-99.99,,,0.00,0.00,VWS V14.01,2013-04-14 06:54:00,
2013-04-14 02:55:00,46.0,35.3,29.96,SW,225,4.0,7.0,66,-99.99,,,0.00,0.00,VWS V14.01,2013-04-14 06:55:00,
2013-04-14 02:56:00,46.0,35.7,29.96,SSW,202,2.0,4.0,67,-99.99,,,0.00,0.00,VWS V14.01,2013-04-14 06:56:00,
2013-04-14 02:57:00,46.0,35.3,29.96,SE,135,2.0,7.0,66,-99.99,,,0.00,0.00,VWS V14.01,2013-04-14 06:57:00,
2013-04-14 02:58:00,46.0,35.7,29.96,SE,135,2.0,5.0,67,-99.99,,,0.00,0.00,VWS V14.01,2013-04-14 06:58:00,
2013-04-14 02:59:00,47.0,35.9,29.96,South,180,2.0,5.0,65,-99.99,,,0.00,0.00,VWS V14.01,2013-04-14 06:59:00,
2013-04-14 03:00:00,46.0,35.7,29.96,SW,225,2.0,3.0,67,-99.99,,,0.00,0.00,VWS V14.01,2013-04-14 07:00:00,
2013-04-14 03:01:00,47.0,36.6,29.96,South,180,3.0,4.0,67,-99.99,,,0.00,0.00,VWS V14.01,2013-04-14 07:01:00,
2013-04-14 03:02:00,46.0,35.7,29.96,SSW,202,5.0,7.0,67,-99.99,,,0.00,0.00,VWS V14.01,2013-04-14 07:02:00,
2013-04-14 03:03:00,46.0,35.7,29.96,SW,225,8.0,10.0,67,-99.99,,,0.00,0.00,VWS V14.01,2013-04-14 07:03:00,
2013-04-14 03:04:00,46.0,35.3,29.96,SSW,202,4.0,4.0,66,-99.99,,,0.00,0.00,VWS V14.01,2013-04-14 07:04:00,
2013-04-14 03:05:00,46.0,35.7,29.96,SSW,202,6.0,8.0,67,-99.99,,,0.00,0.00,VWS V14.01,2013-04-14 07:05:00,
2013-04-14 03:06:00,46.0,35.7,29.97,SW,225,3.0,7.0,67,-99.99,,,0.00,0.00,VWS V14.01,2013-04-14 07:06:00,
2013-04-14 03:07:00,46.0,35.7,29.97,South,180,6.0,7.0,67,-99.99,,,0.00,0.00,VWS V14.01,2013-04-14 07:07:00,
2013-04-14 03:08:00,46.0,35.7,29.97,SSW,202,5.0,9.0,67,-99.99,,,0.00,0.00,VWS V14.01,2013-04-14 07:08:00,
2013-04-14 03:09:00,46.0,34.9,29.96,SE,135,2.0,2.0,65,-99.99,,,0.00,0.00,VWS V14.01,2013-04-14 07:09:00,
2013-04-14 03:10:00,47.0,36.6,29.97,WSW,248,3.0,8.0,67,-99.99,,,0.00,0.00,VWS V14.01,2013-04-14 07:10:00,
2013-04-14 03:11:00,47.0,36.6,29.97,SW,225,4.0,6.0,67,-99.99,,,0.00,0.00,VWS V14.01,2013-04-14 07:11:00,
2013-04-14 03:12:00,47.0,36.6,29.97,SW,225,6.0,8.0,67,-99.99,,,0.00,0.00,VWS V14.01,2013-04-14 07:12:00,
2013-04-14 03:13:00,47.0,36.2,29.96,SSW,202,3.0,6.0,66,-99.99,,,0.00,0.00,VWS V14.01,2013-04-14 07:13:00,
2013-04-14 03:14:00,46.0,35.3,29.97,SW,225,4.0,6.0,66,-99.99,,,0.00,0.00,VWS V14.01,2013-04-14 07:14:00,
2013-04-14 03:15:00,47.0,36.2,29.96,SSW,202,2.0,6.0,66,-99.99,,,0.00,0.00,VWS V14.01,2013-04-14 07:15:00,
2013-04-14 03:16:00,47.0,36.2,29.96,SW,225,5.0,6.0,66,-99.99,,,0.00,0.00,VWS V14.01,2013-04-14 07:16:00,
2013-04-14 03:17:00,47.0,36.2,29.96,SW,225,4.0,7.0,66,-99.99,,,0.00,0.00,VWS V14.01,2013-04-14 07:17:00,
2013-04-14 03:18:00,47.0,35.9,29.96,SSW,202,5.0,5.0,65,-99.99,,,0.00,0.00,VWS V14.01,2013-04-14 07:18:00,
2013-04-14 03:19:00,47.0,35.9,29.96,SSW,202,3.0,3.0,65,-99.99,,,0.00,0.00,VWS V14.01,2013-04-14 07:19:00,
2013-04-14 03:20:00,47.0,35.9,29.96,South,180,4.0,5.0,65,-99.99,,,0.00,0.00,VWS V14.01,2013-04-14 07:20:00,
2013-04-14 03:21:00,47.0,35.9,29.97,SW,225,4.0,7.0,65,-99.99,,,0.00,0.00,VWS V14.01,2013-04-14 07:21:00,
2013-04-14 03:22:00,47.0,35.9,29.97,SSW,202,2.0,7.0,65,-99.99,,,0.00,0.00,VWS V14.01,2013-04-14 07:22:00,
2013-04-14 03:23:00,47.0,35.9,29.97,SW,225,9.0,9.0,65,-99.99,,,0.00,0.00,VWS V14.01,2013-04-14 07:23:00,
2013-04-14 03:24:00,47.0,35.5,29.96,SSW,202,4.0,4.0,64,-99.99,,,0.00,0.00,VWS V14.01,2013-04-14 07:24:00,
2013-04-14 03:25:00,47.0,35.5,29.97,SSW,202,7.0,10.0,64,-99.99,,,0.00,0.00,VWS V14.01,2013-04-14 07:25:00,
2013-04-14 03:26:00,47.0,35.5,29.97,WSW,248,8.0,12.0,64,-99.99,,,0.00,0.00,VWS V14.01,2013-04-14 07:26:00,
2013-04-14 03:27:00,47.0,35.5,29.97,West,270,4.0,14.0,64,-99.99,,,0.00,0.00,VWS V14.01,2013-04-14 07:27:00,
2013-04-14 03:28:00,47.0,35.5,29.97,SW,225,13.0,15.0,64,-99.99,,,0.00,0.00,VWS V14.01,2013-04-14 07:28:00,
2013-04-14 03:29:00,47.0,35.5,29.97,SSE,158,2.0,2.0,64,-99.99,,,0.00,0.00,VWS V14.01,2013-04-14 07:29:00,
2013-04-14 03:30:00,47.0,35.1,29.97,WSW,248,10.0,13.0,63,-99.99,,,0.00,0.00,VWS V14.01,2013-04-14 07:30:00,
2013-04-14 03:31:00,47.0,35.1,29.97,SW,225,9.0,18.0,63,-99.99,,,0.00,0.00,VWS V14.01,2013-04-14 07:31:00,
2013-04-14 03:32:00,47.0,35.1,29.97,SSW,202,8.0,16.0,63,-99.99,,,0.00,0.00,VWS V14.01,2013-04-14 07:32:00,
2013-04-14 03:33:00,47.0,35.1,29.97,WSW,248,10.0,13.0,63,-99.99,,,0.00,0.00,VWS V14.01,2013-04-14 07:33:00,
2013-04-14 03:34:00,47.0,35.5,29.96,South,180,4.0,5.0,64,-99.99,,,0.00,0.00,VWS V14.01,2013-04-14 07:34:00,
2013-04-14 03:35:00,47.0,35.5,29.98,WSW,248,13.0,17.0,64,-99.99,,,0.00,0.00,VWS V14.01,2013-04-14 07:35:00,
2013-04-14 03:36:00,47.0,35.5,29.98,SW,225,11.0,14.0,64,-99.99,,,0.00,0.00,VWS V14.01,2013-04-14 07:36:00,
2013-04-14 03:37:00,47.0,35.5,29.98,SSW,202,18.0,18.0,64,-99.99,,,0.00,0.00,VWS V14.01,2013-04-14 07:37:00,
2013-04-14 03:38:00,47.0,35.5,29.98,West,270,9.0,20.0,64,-99.99,,,0.00,0.00,VWS V14.01,2013-04-14 07:38:00,
2013-04-14 03:39:00,47.0,35.9,29.96,South,180,3.0,3.0,65,-99.99,,,0.00,0.00,VWS V14.01,2013-04-14 07:39:00,
2013-04-14 03:40:00,47.0,35.5,29.98,SSW,202,10.0,11.0,64,-99.99,,,0.00,0.00,VWS V14.01,2013-04-14 07:40:00,
2013-04-14 03:41:00,47.0,35.5,29.98,SSW,202,12.0,13.0,64,-99.99,,,0.00,0.00,VWS V14.01,2013-04-14 07:41:00,
2013-04-14 03:44:00,47.0,36.2,29.96,South,180,4.0,4.0,66,-99.99,,,0.00,0.00,VWS V14.01,2013-04-14 07:44:00,
2013-04-14 03:45:00,47.0,35.1,29.98,WSW,248,10.0,10.0,63,-99.99,,,0.00,0.00,VWS V14.01,2013-04-14 07:45:00,
2013-04-14 03:46:00,47.0,35.5,29.98,SW,225,9.0,9.0,64,-99.99,,,0.00,0.00,VWS V14.01,2013-04-14 07:46:00,
2013-04-14 03:47:00,47.0,35.5,29.98,SW,225,7.0,13.0,64,-99.99,,,0.00,0.00,VWS V14.01,2013-04-14 07:47:00,
2013-04-14 03:48:00,47.0,35.5,29.98,SW,225,13.0,15.0,64,-99.99,,,0.00,0.00,VWS V14.01,2013-04-14 07:48:00,
2013-04-14 03:49:00,47.0,36.2,29.96,SSE,158,1.0,1.0,66,-99.99,,,0.00,0.00,VWS V14.01,2013-04-14 07:49:00,
2013-04-14 03:50:00,47.0,35.5,29.99,SW,225,12.0,18.0,64,-99.99,,,0.00,0.00,VWS V14.01,2013-04-14 07:50:00,
2013-04-14 03:51:00,47.0,35.5,29.99,South,180,9.0,16.0,64,-99.99,,,0.00,0.00,VWS V14.01,2013-04-14 07:51:00,
2013-04-14 03:52:00,47.0,35.5,29.99,SSW,202,8.0,11.0,64,-99.99,,,0.00,0.00,VWS V14.01,2013-04-14 07:52:00,
2013-04-14 03:53:00,47.0,35.5,29.99,WSW,248,13.0,13.0,64,-99.99,,,0.00,0.00,VWS V14.01,2013-04-14 07:53:00,
2013-04-14 03:54:00,47.0,36.2,29.96,SSE,158,4.0,4.0,66,-99.99,,,0.00,0.00,VWS V14.01,2013-04-14 07:54:00,
2013-04-14 03:59:00,46.0,35.3,29.96,SSE,158,2.0,4.0,66,-99.99,,,0.00,0.00,VWS V14.01,2013-04-14 07:59:00,
2013-04-14 04:04:00,46.0,35.7,29.96,SSE,158,2.0,3.0,67,-99.99,,,0.00,0.00,VWS V14.01,2013-04-14 08:04:00,
2013-04-14 04:09:00,46.0,35.7,29.96,SW,225,4.0,6.0,67,-99.99,,,0.00,0.00,VWS V14.01,2013-04-14 08:09:00,
2013-04-14 04:14:00,47.0,36.6,29.97,SW,225,4.0,4.0,67,-99.99,,,0.00,0.00,VWS V14.01,2013-04-14 08:14:00,
2013-04-14 04:19:00,47.0,36.2,29.96,SW,225,3.0,3.0,66,-99.99,,,0.00,0.00,VWS V14.01,2013-04-14 08:19:00,
2013-04-14 04:24:00,47.0,35.9,29.97,SW,225,3.0,4.0,65,-99.99,,,0.00,0.00,VWS V14.01,2013-04-14 08:24:00,
2013-04-14 04:29:00,47.0,35.5,29.97,SSW,202,11.0,11.0,64,-99.99,,,0.00,0.00,VWS V14.01,2013-04-14 08:29:00,
2013-04-14 04:34:00,47.0,35.1,29.97,SSW,202,11.0,11.0,63,-99.99,,,0.00,0.00,VWS V14.01,2013-04-14 08:34:00,
2013-04-14 04:39:00,47.0,35.5,29.98,SSW,202,13.0,14.0,64,-99.99,,,0.00,0.00,VWS V14.01,2013-04-14 08:39:00,
2013-04-14 04:44:00,47.0,35.5,29.98,WSW,248,8.0,10.0,64,-99.99,,,0.00,0.00,VWS V14.01,2013-04-14 08:44:00,
2013-04-14 04:54:00,47.0,35.1,29.99,SSW,202,13.0,16.0,63,-99.99,,,0.00,0.00,VWS V14.01,2013-04-14 08:54:00,
2013-04-14 04:59:00,47.0,35.1,29.99,SW,225,16.0,22.0,63,-99.99,,,0.00,0.00,VWS V14.01,2013-04-14 08:59:00,
2013-04-14 05:04:00,47.0,34.7,30.00,SW,225,16.0,17.0,62,-99.99,,,0.00,0.00,VWS V14.01,2013-04-14 09:04:00,
2013-04-14 05:09:00,47.0,34.7,29.99,SW,225,14.0,23.0,62,-99.99,,,0.00,0.00,VWS V14.01,2013-04-14 09:09:00,
2013-04-14 05:14:00,46.0,33.3,30.00,South,180,15.0,31.0,61,-99.99,,,0.00,0.00,VWS V14.01,2013-04-14 09:14:00,
2013-04-14 05:19:00,46.0,32.9,30.01,WSW,248,25.0,30.0,60,-99.99,,,0.00,0.00,VWS V14.01,2013-04-14 09:19:00,
2013-04-14 05:24:00,44.0,29.8,30.01,WSW,248,31.0,34.0,57,-99.99,,,0.00,0.00,VWS V14.01,2013-04-14 09:24:00,
2013-04-14 05:29:00,44.0,29.8,30.02,WSW,248,18.0,23.0,57,-99.99,,,0.00,0.00,VWS V14.01,2013-04-14 09:29:00,
2013-04-14 05:34:00,44.0,29.8,30.02,WSW,248,16.0,23.0,57,-99.99,,,0.00,0.00,VWS V14.01,2013-04-14 09:34:00,
2013-04-14 05:40:00,43.0,28.4,30.02,SW,225,15.0,19.0,56,-99.99,,,0.00,0.00,VWS V14.01,2013-04-14 09:40:00,
2013-04-14 05:44:00,43.0,28.0,30.02,WSW,248,15.0,20.0,55,-99.99,,,0.00,0.00,VWS V14.01,2013-04-14 09:44:00,
2013-04-14 05:50:00,43.0,28.0,30.03,WSW,248,11.0,15.0,55,-99.99,,,0.00,0.00,VWS V14.01,2013-04-14 09:50:00,
2013-04-14 05:55:00,42.0,26.6,30.03,SW,225,12.0,25.0,54,-99.99,,,0.00,0.00,VWS V14.01,2013-04-14 09:55:00,
2013-04-14 06:00:00,42.0,27.0,30.03,WSW,248,18.0,20.0,55,-99.99,,,0.00,0.00,VWS V14.01,2013-04-14 10:00:00,
2013-04-14 06:05:00,42.0,27.5,30.04,WSW,248,12.0,17.0,56,-99.99,,,0.00,0.00,VWS V14.01,2013-04-14 10:05:00,
2013-04-14 06:10:00,42.0,27.5,30.04,SSW,202,8.0,10.0,56,-99.99,,,0.00,0.00,VWS V14.01,2013-04-14 10:10:00,
2013-04-14 06:15:00,42.0,27.5,30.04,WSW,248,10.0,21.0,56,-99.99,,,0.00,0.00,VWS V14.01,2013-04-14 10:15:00,
2013-04-14 06:20:00,42.0,27.5,30.05,WSW,248,11.0,15.0,56,-99.99,,,0.00,0.00,VWS V14.01,2013-04-14 10:20:00,
2013-04-14 06:25:00,42.0,27.5,30.05,West,270,18.0,18.0,56,-99.99,,,0.00,0.00,VWS V14.01,2013-04-14 10:25:00,
2013-04-14 06:30:00,42.0,27.0,30.05,WSW,248,10.0,10.0,55,-99.99,,,0.00,10.00,VWS V14.01,2013-04-14 10:30:00,
2013-04-14 06:35:00,42.0,27.5,30.05,SW,225,4.0,7.0,56,-99.99,,,0.00,10.00,VWS V14.01,2013-04-14 10:35:00,
2013-04-14 06:40:00,42.0,27.5,30.06,SSW,202,6.0,7.0,56,-99.99,,,0.00,20.00,VWS V14.01,2013-04-14 10:40:00,
2013-04-14 06:45:00,42.0,27.5,30.06,SW,225,5.0,6.0,56,-99.99,,,0.00,50.00,VWS V14.01,2013-04-14 10:45:00,
2013-04-14 06:50:00,41.0,27.0,30.06,SW,225,5.0,7.0,57,-99.99,,,0.00,80.00,VWS V14.01,2013-04-14 10:50:00,
2013-04-14 06:55:00,41.0,27.0,30.06,West,270,8.0,13.0,57,-99.99,,,0.00,100.00,VWS V14.01,2013-04-14 10:55:00,
2013-04-14 07:00:00,41.0,27.0,30.06,WSW,248,7.0,8.0,57,-99.99,,,0.00,110.00,VWS V14.01,2013-04-14 11:00:00,
2013-04-14 07:05:00,41.0,27.4,30.06,WSW,248,10.0,12.0,58,-99.99,,,0.00,120.00,VWS V14.01,2013-04-14 11:05:00,
2013-04-14 07:10:00,41.0,27.4,30.06,SW,225,9.0,9.0,58,-99.99,,,0.00,140.00,VWS V14.01,2013-04-14 11:10:00,
2013-04-14 07:15:00,41.0,27.4,30.07,SW,225,12.0,13.0,58,-99.99,,,0.00,160.00,VWS V14.01,2013-04-14 11:15:00,
2013-04-14 07:20:00,41.0,27.4,30.07,SW,225,5.0,9.0,58,-99.99,,,0.00,170.00,VWS V14.01,2013-04-14 11:20:00,
2013-04-14 07:25:00,41.0,27.4,30.08,SSW,202,8.0,12.0,58,-99.99,,,0.00,190.00,VWS V14.01,2013-04-14 11:25:00,
2013-04-14 07:30:00,42.0,28.3,30.08,SSW,202,7.0,9.0,58,-99.99,,,0.00,200.00,VWS V14.01,2013-04-14 11:30:00,
2013-04-14 07:35:00,42.0,28.3,30.08,SW,225,4.0,10.0,58,-99.99,,,0.00,220.00,VWS V14.01,2013-04-14 11:35:00,
2013-04-14 07:40:00,42.0,28.3,30.08,West,270,3.0,11.0,58,-99.99,,,0.00,230.00,VWS V14.01,2013-04-14 11:40:00,
2013-04-14 07:45:00,42.0,27.9,30.08,SW,225,13.0,14.0,57,-99.99,,,0.00,240.00,VWS V14.01,2013-04-14 11:45:00,
2013-04-14 07:50:00,42.0,27.9,30.09,SW,225,12.0,13.0,57,-99.99,,,0.00,250.00,VWS V14.01,2013-04-14 11:50:00,
2013-04-14 07:55:00,42.0,27.9,30.09,SSW,202,10.0,11.0,57,-99.99,,,0.00,270.00,VWS V14.01,2013-04-14 11:55:00,
2013-04-14 08:00:00,42.0,27.5,30.09,WSW,248,13.0,19.0,56,-99.99,,,0.00,280.00,VWS V14.01,2013-04-14 12:00:00,
2013-04-14 08:05:00,42.0,27.9,30.09,SW,225,8.0,18.0,57,-99.99,,,0.00,290.00,VWS V14.01,2013-04-14 12:05:00,
2013-04-14 08:10:00,42.0,27.5,30.09,WSW,248,11.0,16.0,56,-99.99,,,0.00,310.00,VWS V14.01,2013-04-14 12:10:00,
2013-04-14 08:15:00,42.0,27.5,30.09,WSW,248,14.0,18.0,56,-99.99,,,0.00,320.00,VWS V14.01,2013-04-14 12:15:00,
2013-04-14 08:20:00,42.0,27.5,30.09,SW,225,8.0,18.0,56,-99.99,,,0.00,330.00,VWS V14.01,2013-04-14 12:20:00,
2013-04-14 08:25:00,42.0,27.5,30.09,West,270,8.0,17.0,56,-99.99,,,0.00,350.00,VWS V14.01,2013-04-14 12:25:00,
2013-04-14 08:30:00,42.0,27.5,30.09,WSW,248,9.0,10.0,56,-99.99,,,0.00,360.00,VWS V14.01,2013-04-14 12:30:00,
2013-04-14 08:35:00,43.0,28.0,30.09,SSW,202,14.0,14.0,55,-99.99,,,0.00,370.00,VWS V14.01,2013-04-14 12:35:00,
2013-04-14 08:40:00,43.0,27.5,30.09,SW,225,11.0,17.0,54,-99.99,,,0.00,380.00,VWS V14.01,2013-04-14 12:40:00,
2013-04-14 08:45:00,43.0,27.5,30.09,South,180,4.0,9.0,54,-99.99,,,0.00,390.00,VWS V14.01,2013-04-14 12:45:00,
2013-04-14 08:50:00,43.0,27.5,30.09,SW,225,13.0,21.0,54,-99.99,,,0.00,410.00,VWS V14.01,2013-04-14 12:50:00,
2013-04-14 08:55:00,42.0,27.0,30.09,WSW,248,11.0,18.0,55,-99.99,,,0.00,420.00,VWS V14.01,2013-04-14 12:55:00,
2013-04-14 09:00:00,43.0,28.0,30.10,WSW,248,13.0,18.0,55,-99.99,,,0.00,430.00,VWS V14.01,2013-04-14 13:00:00,
2013-04-14 09:05:00,43.0,28.4,30.10,SW,225,9.0,10.0,56,-99.99,,,0.00,430.00,VWS V14.01,2013-04-14 13:05:00,
2013-04-14 09:10:00,43.0,28.0,30.10,WSW,248,10.0,15.0,55,-99.99,,,0.00,450.00,VWS V14.01,2013-04-14 13:10:00,
2013-04-14 09:15:00,43.0,28.0,30.10,SW,225,9.0,13.0,55,-99.99,,,0.00,460.00,VWS V14.01,2013-04-14 13:15:00,
2013-04-14 09:20:00,43.0,27.5,30.10,SSW,202,8.0,16.0,54,-99.99,,,0.00,480.00,VWS V14.01,2013-04-14 13:20:00,
2013-04-14 09:25:00,43.0,27.5,30.10,SW,225,14.0,21.0,54,-99.99,,,0.00,490.00,VWS V14.01,2013-04-14 13:25:00,
2013-04-14 09:30:00,43.0,27.5,30.10,WSW,248,13.0,15.0,54,-99.99,,,0.00,500.00,VWS V14.01,2013-04-14 13:30:00,
2013-04-14 09:35:00,44.0,28.4,30.10,West,270,12.0,18.0,54,-99.99,,,0.00,530.00,VWS V14.01,2013-04-14 13:35:00,
2013-04-14 09:40:00,44.0,28.0,30.10,WSW,248,10.0,10.0,53,-99.99,,,0.00,550.00,VWS V14.01,2013-04-14 13:40:00,
2013-04-14 09:45:00,44.0,27.5,30.10,SSW,202,10.0,19.0,52,-99.99,,,0.00,550.00,VWS V14.01,2013-04-14 13:45:00,
2013-04-14 09:50:00,44.0,27.5,30.11,West,270,14.0,16.0,52,-99.99,,,0.00,560.00,VWS V14.01,2013-04-14 13:50:00,
2013-04-14 09:55:00,44.0,27.5,30.11,SW,225,13.0,16.0,52,-99.99,,,0.00,620.00,VWS V14.01,2013-04-14 13:55:00,
2013-04-14 10:00:00,44.0,26.6,30.11,SW,225,19.0,25.0,50,-99.99,,,0.00,630.00,VWS V14.01,2013-04-14 14:00:00,
2013-04-14 10:05:00,45.0,28.0,30.12,West,270,13.0,18.0,51,-99.99,,,0.00,760.00,VWS V14.01,2013-04-14 14:05:00,
2013-04-14 10:10:00,45.0,28.0,30.12,SW,225,9.0,13.0,51,-99.99,,,0.00,220.00,VWS V14.01,2013-04-14 14:10:00,
2013-04-14 10:15:00,45.0,26.0,30.12,WSW,248,27.0,30.0,47,-99.99,,,0.00,270.00,VWS V14.01,2013-04-14 14:15:00,
2013-04-14 10:20:00,45.0,26.5,30.12,WSW,248,17.0,22.0,48,-99.99,,,0.00,760.00,VWS V14.01,2013-04-14 14:20:00,
2013-04-14 10:25:00,45.0,26.5,30.12,WSW,248,10.0,27.0,48,-99.99,,,0.00,240.00,VWS V14.01,2013-04-14 14:25:00,
2013-04-14 10:30:00,45.0,26.5,30.12,West,270,16.0,28.0,48,-99.99,,,0.00,240.00,VWS V14.01,2013-04-14 14:30:00,
2013-04-14 10:35:00,46.0,27.9,30.12,West,270,9.0,10.0,49,-99.99,,,0.00,280.00,VWS V14.01,2013-04-14 14:35:00,
2013-04-14 10:40:00,45.0,26.0,30.13,WSW,248,19.0,20.0,47,-99.99,,,0.00,760.00,VWS V14.01,2013-04-14 14:40:00,
2013-04-14 10:45:00,45.0,27.0,30.13,West,270,15.0,15.0,49,-99.99,,,0.00,780.00,VWS V14.01,2013-04-14 14:45:00,
2013-04-14 10:50:00,46.0,27.4,30.13,West,270,7.0,10.0,48,-99.99,,,0.00,740.00,VWS V14.01,2013-04-14 14:50:00,
2013-04-14 10:55:00,46.0,26.9,30.13,SW,225,7.0,8.0,47,-99.99,,,0.00,250.00,VWS V14.01,2013-04-14 14:55:00,
2013-04-14 11:00:00,46.0,26.9,30.13,SSW,202,14.0,17.0,47,-99.99,,,0.00,710.00,VWS V14.01,2013-04-14 15:00:00,
2013-04-14 11:05:00,46.0,26.9,30.13,WSW,248,13.0,13.0,47,-99.99,,,0.00,710.00,VWS V14.01,2013-04-14 15:05:00,
2013-04-14 11:10:00,46.0,26.9,30.13,WSW,248,21.0,23.0,47,-99.99,,,0.00,220.00,VWS V14.01,2013-04-14 15:10:00,
2013-04-14 11:15:00,46.0,27.4,30.13,SW,225,17.0,17.0,48,-99.99,,,0.00,730.00,VWS V14.01,2013-04-14 15:15:00,
2013-04-14 11:20:00,46.0,27.4,30.14,West,270,12.0,12.0,48,-99.99,,,0.00,760.00,VWS V14.01,2013-04-14 15:20:00,
2013-04-14 11:25:00,46.0,27.4,30.13,WSW,248,19.0,19.0,48,-99.99,,,0.00,800.00,VWS V14.01,2013-04-14 15:25:00,
2013-04-14 11:30:00,46.0,27.9,30.13,SW,225,20.0,20.0,49,-99.99,,,0.00,760.00,VWS V14.01,2013-04-14 15:30:00,
2013-04-14 11:35:00,47.0,28.3,30.13,WSW,248,15.0,15.0,48,-99.99,,,0.00,760.00,VWS V14.01,2013-04-14 15:35:00,
2013-04-14 11:40:00,47.0,28.3,30.12,SW,225,9.0,9.0,48,-99.99,,,0.00,780.00,VWS V14.01,2013-04-14 15:40:00,
2013-04-14 11:45:00,48.0,29.3,30.12,WSW,248,9.0,10.0,48,-99.99,,,0.00,780.00,VWS V14.01,2013-04-14 15:45:00,
2013-04-14 11:50:00,47.0,28.3,30.13,WSW,248,22.0,25.0,48,-99.99,,,0.00,740.00,VWS V14.01,2013-04-14 15:50:00,
2013-04-14 11:55:00,47.0,28.9,30.12,WSW,248,17.0,17.0,49,-99.99,,,0.00,760.00,VWS V14.01,2013-04-14 15:55:00,
2013-04-14 12:00:00,48.0,30.3,30.13,South,180,9.0,13.0,50,-99.99,,,0.00,840.00,VWS V14.01,2013-04-14 16:00:00,
2013-04-14 12:05:00,48.0,28.8,30.13,West,270,10.0,16.0,47,-99.99,,,0.00,740.00,VWS V14.01,2013-04-14 16:05:00,
2013-04-14 12:10:00,48.0,29.8,30.12,SE,135,4.0,7.0,49,-99.99,,,0.00,740.00,VWS V14.01,2013-04-14 16:10:00,
2013-04-14 12:15:00,48.0,28.8,30.12,WSW,248,13.0,13.0,47,-99.99,,,0.00,140.00,VWS V14.01,2013-04-14 16:15:00,
2013-04-14 12:20:00,48.0,29.8,30.11,WSW,248,2.0,5.0,49,-99.99,,,0.00,720.00,VWS V14.01,2013-04-14 16:20:00,
2013-04-14 12:25:00,48.0,28.2,30.12,SSW,202,8.0,11.0,46,-99.99,,,0.00,720.00,VWS V14.01,2013-04-14 16:25:00,
2013-04-14 12:30:00,49.0,29.1,30.11,West,270,16.0,19.0,46,-99.99,,,0.00,760.00,VWS V14.01,2013-04-14 16:30:00,
2013-04-14 12:35:00,49.0,29.1,30.11,SSW,202,17.0,19.0,46,-99.99,,,0.00,730.00,VWS V14.01,2013-04-14 16:35:00,
2013-04-14 12:40:00,49.0,29.1,30.11,WSW,248,17.0,18.0,46,-99.99,,,0.00,740.00,VWS V14.01,2013-04-14 16:40:00,
2013-04-14 12:45:00,49.0,28.6,30.11,SW,225,21.0,23.0,45,-99.99,,,0.00,720.00,VWS V14.01,2013-04-14 16:45:00,
2013-04-14 12:50:00,49.0,28.6,30.11,WSW,248,18.0,20.0,45,-99.99,,,0.00,720.00,VWS V14.01,2013-04-14 16:50:00,
2013-04-14 12:55:00,49.0,29.1,30.11,WSW,248,16.0,16.0,46,-99.99,,,0.00,720.00,VWS V14.01,2013-04-14 16:55:00,
2013-04-14 13:00:00,49.0,29.7,30.11,SW,225,5.0,11.0,47,-99.99,,,0.00,710.00,VWS V14.01,2013-04-14 17:00:00,
2013-04-14 13:05:00,49.0,29.1,30.11,West,270,10.0,10.0,46,-99.99,,,0.00,810.00,VWS V14.01,2013-04-14 17:05:00,
2013-04-14 13:10:00,50.0,29.5,30.10,West,270,19.0,22.0,45,-99.99,,,0.00,770.00,VWS V14.01,2013-04-14 17:10:00,
2013-04-14 13:15:00,50.0,30.0,30.10,ESE,112,5.0,8.0,46,-99.99,,,0.00,710.00,VWS V14.01,2013-04-14 17:15:00,
2013-04-14 13:20:00,51.0,29.9,30.09,WSW,248,17.0,20.0,44,-99.99,,,0.00,710.00,VWS V14.01,2013-04-14 17:20:00,
2013-04-14 13:25:00,50.0,29.0,30.10,WSW,248,19.0,19.0,44,-99.99,,,0.00,690.00,VWS V14.01,2013-04-14 17:25:00,
2013-04-14 13:30:00,50.0,29.5,30.10,WSW,248,7.0,9.0,45,-99.99,,,0.00,700.00,VWS V14.01,2013-04-14 17:30:00,
2013-04-14 13:35:00,51.0,29.9,30.09,WSW,248,17.0,19.0,44,-99.99,,,0.00,700.00,VWS V14.01,2013-04-14 17:35:00,
2013-04-14 13:40:00,51.0,29.9,30.10,SSW,202,5.0,10.0,44,-99.99,,,0.00,710.00,VWS V14.01,2013-04-14 17:40:00,
2013-04-14 13:45:00,52.0,30.2,30.09,SSW,202,5.0,6.0,43,-99.99,,,0.00,690.00,VWS V14.01,2013-04-14 17:45:00,
2013-04-14 13:50:00,52.0,30.2,30.09,SSW,202,11.0,15.0,43,-99.99,,,0.00,650.00,VWS V14.01,2013-04-14 17:50:00,
2013-04-14 13:55:00,52.0,29.6,30.09,South,180,13.0,13.0,42,-99.99,,,0.00,480.00,VWS V14.01,2013-04-14 17:55:00,
2013-04-14 14:00:00,52.0,30.2,30.09,SSW,202,11.0,12.0,43,-99.99,,,0.00,660.00,VWS V14.01,2013-04-14 18:00:00,
2013-04-14 14:05:00,52.0,30.2,30.08,NNE,22,4.0,6.0,43,-99.99,,,0.00,470.00,VWS V14.01,2013-04-14 18:05:00,
2013-04-14 14:10:00,53.0,31.1,30.08,WSW,248,9.0,11.0,43,-99.99,,,0.00,430.00,VWS V14.01,2013-04-14 18:10:00,
2013-04-14 14:15:00,54.0,31.5,30.08,SW,225,10.0,11.0,42,-99.99,,,0.00,930.00,VWS V14.01,2013-04-14 18:15:00,
2013-04-14 14:20:00,54.0,30.9,30.08,WSW,248,13.0,16.0,41,-99.99,,,0.00,520.00,VWS V14.01,2013-04-14 18:20:00,
2013-04-14 14:25:00,53.0,30.0,30.08,West,270,15.0,15.0,41,-99.99,,,0.00,720.00,VWS V14.01,2013-04-14 18:25:00,
2013-04-14 14:30:00,53.0,30.5,30.07,West,270,12.0,12.0,42,-99.99,,,0.00,700.00,VWS V14.01,2013-04-14 18:30:00,
2013-04-14 14:35:00,53.0,30.0,30.08,West,270,19.0,21.0,41,-99.99,,,0.00,720.00,VWS V14.01,2013-04-14 18:35:00,
2013-04-14 14:40:00,53.0,30.0,30.08,WSW,248,15.0,19.0,41,-99.99,,,0.00,730.00,VWS V14.01,2013-04-14 18:40:00,
2013-04-14 14:45:00,54.0,30.2,30.08,WSW,248,10.0,17.0,40,-99.99,,,0.00,720.00,VWS V14.01,2013-04-14 18:45:00,
2013-04-14 14:50:00,54.0,30.9,30.08,West,270,11.0,13.0,41,-99.99,,,0.00,740.00,VWS V14.01,2013-04-14 18:50:00,
2013-04-14 14:55:00,53.0,30.0,30.08,WSW,248,12.0,16.0,41,-99.99,,,0.00,610.00,VWS V14.01,2013-04-14 18:55:00,
2013-04-14 15:00:00,53.0,30.0,30.08,SW,225,7.0,12.0,41,-99.99,,,0.00,520.00,VWS V14.01,2013-04-14 19:00:00,
2013-04-14 15:05:00,55.0,32.3,30.07,SW,225,7.0,9.0,42,-99.99,,,0.00,650.00,VWS V14.01,2013-04-14 19:05:00,
2013-04-14 15:10:00,54.0,30.2,30.07,SW,225,13.0,13.0,40,-99.99,,,0.00,640.00,VWS V14.01,2013-04-14 19:10:00,
2013-04-14 15:15:00,54.0,30.2,30.07,West,270,19.0,20.0,40,-99.99,,,0.00,290.00,VWS V14.01,2013-04-14 19:15:00,
2013-04-14 15:20:00,54.0,30.2,30.07,WSW,248,9.0,9.0,40,-99.99,,,0.00,310.00,VWS V14.01,2013-04-14 19:20:00,
2013-04-14 15:25:00,55.0,31.1,30.07,WSW,248,16.0,16.0,40,-99.99,,,0.00,270.00,VWS V14.01,2013-04-14 19:25:00,
2013-04-14 15:30:00,55.0,31.1,30.07,WSW,248,13.0,19.0,40,-99.99,,,0.00,220.00,VWS V14.01,2013-04-14 19:30:00,
2013-04-14 15:35:00,55.0,31.1,30.07,SW,225,10.0,12.0,40,-99.99,,,0.00,330.00,VWS V14.01,2013-04-14 19:35:00,
2013-04-14 15:40:00,55.0,31.1,30.07,SW,225,7.0,10.0,40,-99.99,,,0.00,600.00,VWS V14.01,2013-04-14 19:40:00,
2013-04-14 15:45:00,56.0,31.4,30.07,WNW,292,6.0,8.0,39,-99.99,,,0.00,660.00,VWS V14.01,2013-04-14 19:45:00,
2013-04-14 15:50:00,56.0,31.4,30.07,WSW,248,7.0,7.0,39,-99.99,,,0.00,280.00,VWS V14.01,2013-04-14 19:50:00,
2013-04-14 15:55:00,56.0,30.8,30.07,SSW,202,12.0,14.0,38,-99.99,,,0.00,580.00,VWS V14.01,2013-04-14 19:55:00,
2013-04-14 16:00:00,56.0,30.8,30.07,WSW,248,6.0,9.0,38,-99.99,,,0.00,240.00,VWS V14.01,2013-04-14 20:00:00,
2013-04-14 16:05:00,56.0,30.8,30.07,SW,225,9.0,12.0,38,-99.99,,,0.00,450.00,VWS V14.01,2013-04-14 20:05:00,
2013-04-14 16:10:00,57.0,31.7,30.07,SW,225,4.0,13.0,38,-99.99,,,0.00,230.00,VWS V14.01,2013-04-14 20:10:00,
2013-04-14 16:15:00,57.0,31.0,30.07,West,270,12.0,13.0,37,-99.99,,,0.00,180.00,VWS V14.01,2013-04-14 20:15:00,
2013-04-14 16:20:00,56.0,30.8,30.07,WSW,248,8.0,17.0,38,-99.99,,,0.00,150.00,VWS V14.01,2013-04-14 20:20:00,
2013-04-14 16:25:00,56.0,30.8,30.07,WSW,248,13.0,15.0,38,-99.99,,,0.00,160.00,VWS V14.01,2013-04-14 20:25:00,
2013-04-14 16:30:00,56.0,30.8,30.07,SW,225,14.0,14.0,38,-99.99,,,0.00,140.00,VWS V14.01,2013-04-14 20:30:00,
2013-04-14 16:35:00,56.0,30.8,30.07,WSW,248,13.0,17.0,38,-99.99,,,0.00,100.00,VWS V14.01,2013-04-14 20:35:00,
2013-04-14 16:40:00,56.0,30.8,30.07,West,270,11.0,13.0,38,-99.99,,,0.00,110.00,VWS V14.01,2013-04-14 20:40:00,
2013-04-14 16:45:00,56.0,31.4,30.07,West,270,13.0,13.0,39,-99.99,,,0.00,130.00,VWS V14.01,2013-04-14 20:45:00,
2013-04-14 16:50:00,56.0,30.8,30.07,SSW,202,12.0,13.0,38,-99.99,,,0.00,140.00,VWS V14.01,2013-04-14 20:50:00,
2013-04-14 16:55:00,56.0,30.8,30.07,SW,225,10.0,13.0,38,-99.99,,,0.00,180.00,VWS V14.01,2013-04-14 20:55:00,
2013-04-14 17:00:00,57.0,31.7,30.07,SW,225,7.0,13.0,38,-99.99,,,0.00,150.00,VWS V14.01,2013-04-14 21:00:00,
2013-04-14 17:05:00,56.0,30.8,30.07,West,270,13.0,19.0,38,-99.99,,,0.00,300.00,VWS V14.01,2013-04-14 21:05:00,
2013-04-14 17:10:00,56.0,30.8,30.07,WSW,248,13.0,15.0,38,-99.99,,,0.00,180.00,VWS V14.01,2013-04-14 21:10:00,
2013-04-14 17:15:00,56.0,30.8,30.07,SW,225,10.0,16.0,38,-99.99,,,0.00,150.00,VWS V14.01,2013-04-14 21:15:00,
2013-04-14 17:20:00,56.0,30.8,30.06,West,270,13.0,19.0,38,-99.99,,,0.00,170.00,VWS V14.01,2013-04-14 21:20:00,
2013-04-14 17:25:00,56.0,30.8,30.07,WSW,248,10.0,11.0,38,-99.99,,,0.00,150.00,VWS V14.01,2013-04-14 21:25:00,
2013-04-14 17:30:00,56.0,31.4,30.07,SSW,202,9.0,12.0,39,-99.99,,,0.00,150.00,VWS V14.01,2013-04-14 21:30:00,
2013-04-14 17:35:00,57.0,31.7,30.07,South,180,14.0,19.0,38,-99.99,,,0.00,230.00,VWS V14.01,2013-04-14 21:35:00,
2013-04-14 17:40:00,57.0,31.7,30.07,WSW,248,7.0,10.0,38,-99.99,,,0.00,240.00,VWS V14.01,2013-04-14 21:40:00,
2013-04-14 17:45:00,57.0,31.7,30.07,SW,225,11.0,14.0,38,-99.99,,,0.00,230.00,VWS V14.01,2013-04-14 21:45:00,
2013-04-14 17:50:00,57.0,31.7,30.08,WSW,248,8.0,12.0,38,-99.99,,,0.00,130.00,VWS V14.01,2013-04-14 21:50:00,
2013-04-14 17:55:00,57.0,31.7,30.08,SW,225,8.0,14.0,38,-99.99,,,0.00,220.00,VWS V14.01,2013-04-14 21:55:00,
2013-04-14 18:00:00,57.0,31.7,30.08,WNW,292,8.0,18.0,38,-99.99,,,0.00,220.00,VWS V14.01,2013-04-14 22:00:00,
2013-04-14 18:05:00,57.0,31.7,30.08,WSW,248,6.0,8.0,38,-99.99,,,0.00,160.00,VWS V14.01,2013-04-14 22:05:00,
2013-04-14 18:10:00,57.0,31.0,30.08,WSW,248,11.0,12.0,37,-99.99,,,0.00,100.00,VWS V14.01,2013-04-14 22:10:00,
2013-04-14 18:15:00,57.0,31.7,30.09,South,180,9.0,12.0,38,-99.99,,,0.00,100.00,VWS V14.01,2013-04-14 22:15:00,
2013-04-14 18:20:00,57.0,31.7,30.09,SSW,202,7.0,13.0,38,-99.99,,,0.00,70.00,VWS V14.01,2013-04-14 22:20:00,
2013-04-14 18:25:00,57.0,31.7,30.09,SW,225,9.0,10.0,38,-99.99,,,0.00,90.00,VWS V14.01,2013-04-14 22:25:00,
2013-04-14 18:30:00,57.0,31.7,30.10,SW,225,9.0,12.0,38,-99.99,,,0.00,110.00,VWS V14.01,2013-04-14 22:30:00,
2013-04-14 18:35:00,57.0,32.3,30.09,WSW,248,3.0,8.0,39,-99.99,,,0.00,80.00,VWS V14.01,2013-04-14 22:35:00,
2013-04-14 18:40:00,57.0,32.3,30.10,WSW,248,6.0,8.0,39,-99.99,,,0.00,70.00,VWS V14.01,2013-04-14 22:40:00,
2013-04-14 18:45:00,57.0,32.3,30.10,WSW,248,8.0,9.0,39,-99.99,,,0.00,50.00,VWS V14.01,2013-04-14 22:45:00,
2013-04-14 18:50:00,57.0,32.3,30.11,SW,225,7.0,8.0,39,-99.99,,,0.00,40.00,VWS V14.01,2013-04-14 22:50:00,
2013-04-14 18:55:00,57.0,32.3,30.11,SW,225,7.0,10.0,39,-99.99,,,0.00,40.00,VWS V14.01,2013-04-14 22:55:00,
2013-04-14 19:00:00,57.0,32.9,30.11,WSW,248,4.0,5.0,40,-99.99,,,0.00,40.00,VWS V14.01,2013-04-14 23:00:00,
2013-04-14 19:05:00,57.0,32.9,30.11,WSW,248,4.0,7.0,40,-99.99,,,0.00,30.00,VWS V14.01,2013-04-14 23:05:00,
2013-04-14 19:10:00,57.0,32.9,30.11,SSW,202,8.0,9.0,40,-99.99,,,0.00,20.00,VWS V14.01,2013-04-14 23:10:00,
2013-04-14 19:15:00,57.0,32.9,30.11,WSW,248,4.0,7.0,40,-99.99,,,0.00,20.00,VWS V14.01,2013-04-14 23:15:00,
2013-04-14 19:20:00,57.0,33.5,30.10,SSW,202,3.0,6.0,41,-99.99,,,0.00,20.00,VWS V14.01,2013-04-14 23:20:00,
2013-04-14 19:25:00,57.0,32.9,30.10,WSW,248,6.0,7.0,40,-99.99,,,0.00,20.00,VWS V14.01,2013-04-14 23:25:00,
2013-04-14 19:30:00,57.0,33.5,30.10,SW,225,4.0,5.0,41,-99.99,,,0.00,10.00,VWS V14.01,2013-04-14 23:30:00,
2013-04-14 19:35:00,57.0,33.5,30.10,WSW,248,4.0,4.0,41,-99.99,,,0.00,10.00,VWS V14.01,2013-04-14 23:35:00,
2013-04-14 19:40:00,57.0,33.5,30.10,WSW,248,2.0,4.0,41,-99.99,,,0.00,0.00,VWS V14.01,2013-04-14 23:40:00,
2013-04-14 19:45:00,57.0,33.5,30.10,SW,225,4.0,4.0,41,-99.99,,,0.00,0.00,VWS V14.01,2013-04-14 23:45:00,
2013-04-14 19:50:00,57.0,34.2,30.10,WSW,248,2.0,3.0,42,-99.99,,,0.00,0.00,VWS V14.01,2013-04-14 23:50:00,
2013-04-14 19:55:00,56.0,33.2,30.11,West,270,3.0,4.0,42,-99.99,,,0.00,0.00,VWS V14.01,2013-04-14 23:55:00,
2013-04-14 20:00:00,56.0,33.2,30.10,West,270,3.0,4.0,42,-99.99,,,0.00,0.00,VWS V14.01,2013-04-15 00:00:00,
2013-04-14 20:05:00,56.0,33.2,30.11,West,270,3.0,5.0,42,-99.99,,,0.00,0.00,VWS V14.01,2013-04-15 00:05:00,
2013-04-14 20:10:00,56.0,33.8,30.11,WSW,248,4.0,4.0,43,-99.99,,,0.00,0.00,VWS V14.01,2013-04-15 00:10:00,
2013-04-14 20:15:00,56.0,33.8,30.11,WNW,292,2.0,3.0,43,-99.99,,,0.00,0.00,VWS V14.01,2013-04-15 00:15:00,
2013-04-14 20:20:00,56.0,34.4,30.11,NW,315,2.0,3.0,44,-99.99,,,0.00,0.00,VWS V14.01,2013-04-15 00:20:00,
2013-04-14 20:25:00,55.0,33.5,30.11,WNW,292,2.0,4.0,44,-99.99,,,0.00,0.00,VWS V14.01,2013-04-15 00:25:00,
2013-04-14 20:30:00,55.0,33.5,30.10,WNW,292,2.0,3.0,44,-99.99,,,0.00,0.00,VWS V14.01,2013-04-15 00:30:00,
2013-04-14 20:36:00,55.0,33.5,30.10,WNW,292,3.0,5.0,44,-99.99,,,0.00,0.00,VWS V14.01,2013-04-15 00:36:00,
2013-04-14 20:41:00,56.0,35.0,30.11,NNW,338,3.0,5.0,45,-99.99,,,0.00,0.00,VWS V14.01,2013-04-15 00:41:00,
2013-04-14 20:46:00,56.0,34.4,30.11,North,0,4.0,5.0,44,-99.99,,,0.00,0.00,VWS V14.01,2013-04-15 00:46:00,
2013-04-14 20:51:00,56.0,34.4,30.11,NW,315,4.0,5.0,44,-99.99,,,0.00,0.00,VWS V14.01,2013-04-15 00:51:00,
2013-04-14 20:56:00,55.0,34.1,30.12,North,0,3.0,4.0,45,-99.99,,,0.00,0.00,VWS V14.01,2013-04-15 00:56:00,
2013-04-14 21:01:00,55.0,34.1,30.12,North,0,4.0,5.0,45,-99.99,,,0.00,0.00,VWS V14.01,2013-04-15 01:01:00,
2013-04-14 21:06:00,55.0,34.6,30.12,NE,45,2.0,3.0,46,-99.99,,,0.00,0.00,VWS V14.01,2013-04-15 01:06:00,
2013-04-14 21:11:00,55.0,34.1,30.12,NE,45,3.0,4.0,45,-99.99,,,0.00,0.00,VWS V14.01,2013-04-15 01:11:00,
2013-04-14 21:16:00,55.0,34.1,30.13,NNE,22,2.0,2.0,45,-99.99,,,0.00,0.00,VWS V14.01,2013-04-15 01:16:00,
2013-04-14 21:21:00,55.0,34.1,30.13,NE,45,2.0,3.0,45,-99.99,,,0.00,0.00,VWS V14.01,2013-04-15 01:21:00,
2013-04-14 21:26:00,55.0,34.1,30.12,NNE,22,2.0,4.0,45,-99.99,,,0.00,0.00,VWS V14.01,2013-04-15 01:26:00,
2013-04-14 21:31:00,55.0,34.6,30.13,ENE,68,2.0,3.0,46,-99.99,,,0.00,0.00,VWS V14.01,2013-04-15 01:31:00,
2013-04-14 21:36:00,55.0,34.6,30.13,ENE,68,3.0,4.0,46,-99.99,,,0.00,0.00,VWS V14.01,2013-04-15 01:36:00,
2013-04-14 21:41:00,54.0,34.8,30.13,NNE,22,6.0,6.0,48,-99.99,,,0.00,0.00,VWS V14.01,2013-04-15 01:41:00,
2013-04-14 21:46:00,54.0,34.8,30.13,NNE,22,5.0,9.0,48,-99.99,,,0.00,0.00,VWS V14.01,2013-04-15 01:46:00,
2013-04-14 21:51:00,53.0,33.8,30.13,North,0,7.0,10.0,48,-99.99,,,0.00,0.00,VWS V14.01,2013-04-15 01:51:00,
2013-04-14 21:57:00,53.0,34.4,30.13,NNW,338,7.0,10.0,49,-99.99,,,0.00,0.00,VWS V14.01,2013-04-15 01:57:00,
2013-04-14 22:01:00,53.0,33.8,30.14,NNE,22,3.0,9.0,48,-99.99,,,0.00,0.00,VWS V14.01,2013-04-15 02:01:00,
2013-04-14 22:06:00,52.0,32.9,30.14,NE,45,7.0,9.0,48,-99.99,,,0.00,0.00,VWS V14.01,2013-04-15 02:06:00,
2013-04-14 22:12:00,52.0,32.9,30.14,NE,45,4.0,7.0,48,-99.99,,,0.00,0.00,VWS V14.01,2013-04-15 02:12:00,
2013-04-14 22:17:00,52.0,32.9,30.14,North,0,6.0,9.0,48,-99.99,,,0.00,0.00,VWS V14.01,2013-04-15 02:17:00,
2013-04-14 22:22:00,52.0,32.9,30.14,North,0,10.0,10.0,48,-99.99,,,0.00,0.00,VWS V14.01,2013-04-15 02:22:00,
2013-04-14 22:27:00,52.0,32.9,30.14,North,0,6.0,9.0,48,-99.99,,,0.00,0.00,VWS V14.01,2013-04-15 02:27:00,
2013-04-14 22:32:00,51.0,32.0,30.14,NNE,22,5.0,10.0,48,-99.99,,,0.00,0.00,VWS V14.01,2013-04-15 02:32:00,
2013-04-14 22:37:00,51.0,32.5,30.14,North,0,10.0,13.0,49,-99.99,,,0.00,0.00,VWS V14.01,2013-04-15 02:37:00,
2013-04-14 22:42:00,51.0,32.5,30.14,NNW,338,10.0,13.0,49,-99.99,,,0.00,0.00,VWS V14.01,2013-04-15 02:42:00,
2013-04-14 22:47:00,51.0,32.5,30.14,North,0,10.0,13.0,49,-99.99,,,0.00,0.00,VWS V14.01,2013-04-15 02:47:00,
2013-04-14 22:52:00,51.0,33.0,30.14,North,0,9.0,11.0,50,-99.99,,,0.00,0.00,VWS V14.01,2013-04-15 02:52:00,
2013-04-14 22:55:00,50.0,33.6,30.15,NNE,22,4.0,5.0,53,-99.99,,,0.00,0.00,VWS V14.01,2013-04-15 02:55:00,
2013-04-14 22:56:00,50.0,33.6,30.15,ENE,68,5.0,5.0,53,-99.99,,,0.00,0.00,VWS V14.01,2013-04-15 02:56:00,
2013-04-14 22:57:00,51.0,33.0,30.14,NNW,338,13.0,14.0,50,-99.99,,,0.00,0.00,VWS V14.01,2013-04-15 02:57:00,
2013-04-14 22:58:00,50.0,33.6,30.15,NE,45,3.0,5.0,53,-99.99,,,0.00,0.00,VWS V14.01,2013-04-15 02:58:00,
2013-04-14 22:59:00,50.0,33.6,30.14,North,0,4.0,5.0,53,-99.99,,,0.00,0.00,VWS V14.01,2013-04-15 02:59:00,
2013-04-14 23:00:00,49.0,32.6,30.14,NE,45,4.0,6.0,53,-99.99,,,0.00,0.00,VWS V14.01,2013-04-15 03:00:00,
2013-04-14 23:01:00,49.0,32.6,30.14,NNE,22,4.0,6.0,53,-99.99,,,0.00,0.00,VWS V14.01,2013-04-15 03:01:00,
2013-04-14 23:02:00,51.0,33.5,30.14,North,0,10.0,12.0,51,-99.99,,,0.00,0.00,VWS V14.01,2013-04-15 03:02:00,
2013-04-14 23:07:00,51.0,33.5,30.14,NNW,338,10.0,12.0,51,-99.99,,,0.00,0.00,VWS V14.01,2013-04-15 03:07:00,
2013-04-14 23:12:00,51.0,33.5,30.14,NNW,338,10.0,14.0,51,-99.99,,,0.00,0.00,VWS V14.01,2013-04-15 03:12:00,
2013-04-14 23:17:00,50.0,32.6,30.14,SSE,158,9.0,12.0,51,-99.99,,,0.00,0.00,VWS V14.01,2013-04-15 03:17:00,
2013-04-14 23:22:00,51.0,33.0,30.14,NNW,338,10.0,12.0,50,-99.99,,,0.00,0.00,VWS V14.01,2013-04-15 03:22:00,
2013-04-14 23:27:00,51.0,33.0,30.14,NNE,22,6.0,11.0,50,-99.99,,,0.00,0.00,VWS V14.01,2013-04-15 03:27:00,
2013-04-14 23:32:00,51.0,33.0,30.15,North,0,8.0,10.0,50,-99.99,,,0.00,0.00,VWS V14.01,2013-04-15 03:32:00,
2013-04-14 23:37:00,50.0,32.6,30.14,North,0,3.0,9.0,51,-99.99,,,0.00,0.00,VWS V14.01,2013-04-15 03:37:00,
2013-04-14 23:42:00,50.0,32.6,30.14,NNE,22,4.0,10.0,51,-99.99,,,0.00,0.00,VWS V14.01,2013-04-15 03:42:00,
2013-04-14 23:47:00,50.0,33.1,30.15,NNE,22,3.0,4.0,52,-99.99,,,0.00,0.00,VWS V14.01,2013-04-15 03:47:00,
2013-04-14 23:52:00,50.0,33.1,30.15,North,0,5.0,6.0,52,-99.99,,,0.00,0.00,VWS V14.01,2013-04-15 03:52:00,
2013-04-14 23:57:00,50.0,33.1,30.15,NNE,22,3.0,4.0,52,-99.99,,,0.00,0.00,VWS V14.01,2013-04-15 03:57:00,